Year,Month,Day,Hour,Minute,Value (Times are PST for windgust in km/hr)
2013,10,01,00,00,3.20
2013,10,01,00,01,4.80
2013,10,01,00,02,6.40
2013,10,01,00,03,4.80
2013,10,01,00,04,1.60
2013,10,01,00,05,8.10
2013,10,01,00,06,4.80
2013,10,01,00,07,6.40
2013,10,01,00,08,4.80
2013,10,01,00,09,4.80
2013,10,01,00,10,4.80
2013,10,01,00,11,3.20
2013,10,01,00,12,6.40
2013,10,01,00,13,6.40
2013,10,01,00,14,4.80
2013,10,01,00,15,4.80
2013,10,01,00,16,6.40
2013,10,01,00,17,3.20
2013,10,01,00,18,4.80
2013,10,01,00,19,3.20
2013,10,01,00,20,1.60
2013,10,01,00,23,1.60
2013,10,01,00,25,3.20
2013,10,01,00,26,1.60
2013,10,01,00,27,4.80
2013,10,01,00,28,4.80
2013,10,01,00,29,4.80
2013,10,01,00,30,4.80
2013,10,01,00,31,3.20
2013,10,01,00,33,4.80
2013,10,01,00,34,4.80
2013,10,01,00,35,4.80
2013,10,01,00,36,6.40
2013,10,01,00,37,4.80
2013,10,01,00,38,4.80
2013,10,01,00,39,8.10
2013,10,01,00,40,6.40
2013,10,01,00,41,8.10
2013,10,01,00,42,8.10
2013,10,01,00,43,11.30
2013,10,01,00,44,17.70
2013,10,01,00,45,11.30
2013,10,01,00,46,9.60
2013,10,01,00,47,9.60
2013,10,01,00,48,8.10
2013,10,01,00,49,16.10
2013,10,01,00,50,22.50
2013,10,01,00,51,14.50
2013,10,01,00,52,9.60
2013,10,01,00,53,11.30
2013,10,01,00,54,9.60
2013,10,01,00,55,11.30
2013,10,01,00,56,9.60
2013,10,01,00,57,9.60
2013,10,01,00,58,11.30
2013,10,01,00,59,8.10
2013,10,01,01,00,4.80
2013,10,01,01,01,4.80
2013,10,01,01,02,9.60
2013,10,01,01,03,11.30
2013,10,01,01,04,6.40
2013,10,01,01,05,6.40
2013,10,01,01,06,4.80
2013,10,01,01,07,3.20
2013,10,01,01,08,4.80
2013,10,01,01,09,8.10
2013,10,01,01,10,1.60
2013,10,01,01,11,8.10
2013,10,01,01,12,4.80
2013,10,01,01,13,4.80
2013,10,01,01,14,3.20
2013,10,01,01,15,1.60
2013,10,01,01,17,1.60
2013,10,01,01,19,4.80
2013,10,01,01,20,4.80
2013,10,01,01,21,1.60
2013,10,01,01,28,3.20
2013,10,01,01,29,1.60
2013,10,01,01,30,1.60
2013,10,01,01,55,3.20
2013,10,01,01,56,4.80
2013,10,01,01,57,3.20
2013,10,01,01,58,4.80
2013,10,01,01,59,4.80
2013,10,01,02,00,4.80
2013,10,01,02,01,4.80
2013,10,01,02,02,3.20
2013,10,01,02,03,3.20
2013,10,01,02,04,4.80
2013,10,01,02,05,4.80
2013,10,01,02,06,4.80
2013,10,01,02,07,3.20
2013,10,01,02,08,4.80
2013,10,01,02,09,4.80
2013,10,01,02,10,3.20
2013,10,01,02,11,1.60
2013,10,01,02,19,1.60
2013,10,01,02,20,3.20
2013,10,01,02,21,4.80
2013,10,01,02,22,4.80
2013,10,01,02,23,4.80
2013,10,01,02,24,6.40
2013,10,01,02,25,6.40
2013,10,01,02,26,4.80
2013,10,01,02,27,6.40
2013,10,01,02,28,6.40
2013,10,01,02,29,6.40
2013,10,01,02,30,8.10
2013,10,01,02,31,8.10
2013,10,01,02,32,8.10
2013,10,01,02,33,6.40
2013,10,01,02,34,6.40
2013,10,01,02,35,3.20
2013,10,01,02,36,6.40
2013,10,01,02,37,4.80
2013,10,01,02,38,4.80
2013,10,01,02,39,4.80
2013,10,01,02,40,8.10
2013,10,01,02,41,4.80
2013,10,01,02,42,6.40
2013,10,01,02,43,8.10
2013,10,01,02,44,6.40
2013,10,01,02,45,6.40
2013,10,01,02,46,6.40
2013,10,01,02,47,6.40
2013,10,01,02,48,4.80
2013,10,01,02,50,1.60
2013,10,01,02,52,6.40
2013,10,01,02,53,4.80
2013,10,01,02,54,8.10
2013,10,01,02,55,8.10
2013,10,01,02,56,3.20
2013,10,01,03,04,4.80
2013,10,01,03,05,6.40
2013,10,01,03,06,6.40
2013,10,01,03,07,6.40
2013,10,01,03,08,3.20
2013,10,01,03,09,3.20
2013,10,01,03,10,3.20
2013,10,01,03,11,4.80
2013,10,01,03,12,4.80
2013,10,01,03,13,3.20
2013,10,01,03,14,4.80
2013,10,01,03,15,9.60
2013,10,01,03,16,4.80
2013,10,01,03,17,11.30
2013,10,01,03,18,8.10
2013,10,01,03,19,8.10
2013,10,01,03,20,8.10
2013,10,01,03,21,8.10
2013,10,01,03,22,6.40
2013,10,01,03,23,6.40
2013,10,01,03,24,4.80
2013,10,01,03,25,3.20
2013,10,01,03,26,4.80
2013,10,01,03,27,4.80
2013,10,01,03,28,11.30
2013,10,01,03,29,6.40
2013,10,01,03,30,8.10
2013,10,01,03,31,6.40
2013,10,01,03,32,6.40
2013,10,01,03,33,4.80
2013,10,01,03,34,6.40
2013,10,01,03,35,4.80
2013,10,01,03,36,3.20
2013,10,01,03,37,8.10
2013,10,01,03,38,6.40
2013,10,01,03,39,8.10
2013,10,01,03,40,8.10
2013,10,01,03,41,6.40
2013,10,01,03,42,6.40
2013,10,01,03,43,4.80
2013,10,01,03,44,6.40
2013,10,01,03,45,8.10
2013,10,01,03,46,9.60
2013,10,01,03,47,8.10
2013,10,01,03,48,6.40
2013,10,01,03,49,8.10
2013,10,01,03,50,6.40
2013,10,01,03,51,4.80
2013,10,01,03,52,4.80
2013,10,01,03,53,4.80
2013,10,01,03,54,3.20
2013,10,01,03,55,1.60
2013,10,01,04,07,1.60
2013,10,01,04,09,3.20
2013,10,01,04,10,3.20
2013,10,01,04,11,1.60
2013,10,01,04,12,3.20
2013,10,01,04,13,3.20
2013,10,01,04,14,6.40
2013,10,01,04,15,4.80
2013,10,01,04,16,6.40
2013,10,01,04,17,4.80
2013,10,01,04,18,3.20
2013,10,01,04,19,4.80
2013,10,01,04,20,4.80
2013,10,01,04,21,4.80
2013,10,01,04,22,3.20
2013,10,01,04,23,3.20
2013,10,01,04,30,1.60
2013,10,01,04,32,4.80
2013,10,01,04,33,4.80
2013,10,01,04,34,3.20
2013,10,01,04,35,3.20
2013,10,01,04,36,3.20
2013,10,01,04,37,3.20
2013,10,01,04,38,3.20
2013,10,01,04,40,1.60
2013,10,01,04,41,1.60
2013,10,01,04,42,4.80
2013,10,01,04,43,4.80
2013,10,01,04,44,4.80
2013,10,01,04,45,4.80
2013,10,01,04,46,4.80
2013,10,01,04,47,4.80
2013,10,01,04,48,3.20
2013,10,01,04,52,1.60
2013,10,01,04,53,4.80
2013,10,01,04,54,3.20
2013,10,01,04,55,4.80
2013,10,01,04,56,4.80
2013,10,01,04,57,4.80
2013,10,01,04,58,4.80
2013,10,01,04,59,3.20
2013,10,01,05,00,4.80
2013,10,01,05,01,3.20
2013,10,01,05,02,3.20
2013,10,01,05,03,4.80
2013,10,01,05,04,3.20
2013,10,01,05,05,3.20
2013,10,01,05,08,1.60
2013,10,01,05,12,1.60
2013,10,01,05,14,3.20
2013,10,01,05,15,4.80
2013,10,01,05,16,1.60
2013,10,01,05,19,3.20
2013,10,01,05,20,4.80
2013,10,01,05,21,1.60
2013,10,01,05,23,3.20
2013,10,01,05,24,4.80
2013,10,01,05,25,4.80
2013,10,01,05,26,3.20
2013,10,01,05,27,6.40
2013,10,01,05,28,4.80
2013,10,01,05,29,3.20
2013,10,01,05,30,4.80
2013,10,01,05,31,3.20
2013,10,01,05,37,1.60
2013,10,01,05,40,1.60
2013,10,01,05,41,1.60
2013,10,01,06,01,4.80
2013,10,01,06,02,3.20
2013,10,01,06,03,3.20
2013,10,01,06,04,4.80
2013,10,01,06,05,3.20
2013,10,01,06,06,3.20
2013,10,01,06,07,6.40
2013,10,01,06,08,4.80
2013,10,01,06,09,4.80
2013,10,01,06,10,3.20
2013,10,01,06,11,6.40
2013,10,01,06,12,6.40
2013,10,01,06,13,4.80
2013,10,01,06,14,1.60
2013,10,01,06,16,3.20
2013,10,01,06,21,1.60
2013,10,01,06,22,8.10
2013,10,01,06,23,3.20
2013,10,01,06,24,3.20
2013,10,01,06,25,3.20
2013,10,01,06,26,3.20
2013,10,01,06,27,1.60
2013,10,01,06,41,1.60
2013,10,01,07,18,3.20
2013,10,01,07,19,3.20
2013,10,01,07,20,3.20
2013,10,01,07,21,3.20
2013,10,01,07,22,3.20
2013,10,01,07,23,3.20
2013,10,01,07,24,1.60
2013,10,01,07,28,6.40
2013,10,01,07,29,6.40
2013,10,01,07,30,6.40
2013,10,01,07,31,4.80
2013,10,01,07,32,3.20
2013,10,01,07,33,3.20
2013,10,01,08,04,3.20
2013,10,01,08,05,1.60
2013,10,01,08,06,1.60
2013,10,01,08,07,3.20
2013,10,01,08,08,4.80
2013,10,01,08,09,3.20
2013,10,01,08,19,3.20
2013,10,01,08,20,3.20
2013,10,01,08,21,3.20
2013,10,01,08,22,3.20
2013,10,01,08,24,1.60
2013,10,01,08,25,3.20
2013,10,01,08,26,3.20
2013,10,01,08,27,3.20
2013,10,01,08,28,3.20
2013,10,01,08,29,4.80
2013,10,01,08,30,3.20
2013,10,01,08,31,3.20
2013,10,01,08,32,3.20
2013,10,01,08,33,1.60
2013,10,01,08,37,3.20
2013,10,01,08,40,1.60
2013,10,01,08,43,4.80
2013,10,01,08,44,3.20
2013,10,01,08,45,6.40
2013,10,01,08,46,4.80
2013,10,01,08,47,3.20
2013,10,01,08,48,3.20
2013,10,01,08,49,4.80
2013,10,01,08,50,1.60
2013,10,01,08,51,3.20
2013,10,01,08,52,4.80
2013,10,01,08,53,4.80
2013,10,01,08,54,4.80
2013,10,01,08,55,3.20
2013,10,01,08,56,3.20
2013,10,01,09,18,3.20
2013,10,01,09,19,3.20
2013,10,01,09,20,3.20
2013,10,01,09,21,3.20
2013,10,01,09,22,4.80
2013,10,01,09,23,4.80
2013,10,01,09,44,1.60
2013,10,01,09,45,3.20
2013,10,01,09,46,1.60
2013,10,01,09,49,3.20
2013,10,01,09,50,3.20
2013,10,01,09,51,4.80
2013,10,01,09,52,6.40
2013,10,01,09,53,4.80
2013,10,01,09,54,4.80
2013,10,01,09,55,4.80
2013,10,01,09,56,3.20
2013,10,01,09,57,4.80
2013,10,01,09,58,6.40
2013,10,01,09,59,6.40
2013,10,01,10,00,4.80
2013,10,01,10,01,3.20
2013,10,01,10,02,3.20
2013,10,01,10,03,4.80
2013,10,01,10,04,3.20
2013,10,01,10,05,9.60
2013,10,01,10,06,6.40
2013,10,01,10,07,6.40
2013,10,01,10,08,4.80
2013,10,01,10,09,3.20
2013,10,01,10,11,4.80
2013,10,01,10,12,9.60
2013,10,01,10,13,8.10
2013,10,01,10,14,9.60
2013,10,01,10,15,8.10
2013,10,01,10,16,8.10
2013,10,01,10,17,6.40
2013,10,01,10,18,3.20
2013,10,01,10,19,8.10
2013,10,01,10,20,6.40
2013,10,01,10,22,6.40
2013,10,01,10,23,9.60
2013,10,01,10,24,9.60
2013,10,01,10,25,4.80
2013,10,01,10,26,4.80
2013,10,01,10,27,4.80
2013,10,01,10,28,6.40
2013,10,01,10,29,4.80
2013,10,01,10,30,6.40
2013,10,01,10,31,6.40
2013,10,01,10,32,6.40
2013,10,01,10,33,8.10
2013,10,01,10,34,8.10
2013,10,01,10,35,3.20
2013,10,01,10,36,4.80
2013,10,01,10,37,3.20
2013,10,01,10,38,1.60
2013,10,01,10,39,3.20
2013,10,01,10,40,8.10
2013,10,01,10,41,6.40
2013,10,01,10,42,11.30
2013,10,01,10,43,8.10
2013,10,01,10,44,8.10
2013,10,01,10,45,14.50
2013,10,01,10,46,16.10
2013,10,01,10,47,11.30
2013,10,01,10,48,11.30
2013,10,01,10,49,12.90
2013,10,01,10,50,9.60
2013,10,01,10,51,20.90
2013,10,01,10,52,19.30
2013,10,01,10,53,14.50
2013,10,01,10,54,17.70
2013,10,01,10,55,17.70
2013,10,01,10,56,11.30
2013,10,01,10,57,9.60
2013,10,01,10,58,16.10
2013,10,01,10,59,12.90
2013,10,01,11,00,4.80
2013,10,01,11,01,9.60
2013,10,01,11,02,12.90
2013,10,01,11,03,14.50
2013,10,01,11,04,6.40
2013,10,01,11,05,9.60
2013,10,01,11,06,6.40
2013,10,01,11,07,4.80
2013,10,01,11,08,14.50
2013,10,01,11,09,16.10
2013,10,01,11,10,9.60
2013,10,01,11,11,9.60
2013,10,01,11,12,11.30
2013,10,01,11,13,8.10
2013,10,01,11,14,6.40
2013,10,01,11,15,4.80
2013,10,01,11,16,9.60
2013,10,01,11,17,11.30
2013,10,01,11,18,9.60
2013,10,01,11,19,9.60
2013,10,01,11,20,9.60
2013,10,01,11,21,8.10
2013,10,01,11,22,14.50
2013,10,01,11,23,11.30
2013,10,01,11,24,11.30
2013,10,01,11,25,9.60
2013,10,01,11,26,6.40
2013,10,01,11,27,14.50
2013,10,01,11,28,14.50
2013,10,01,11,29,9.60
2013,10,01,11,30,6.40
2013,10,01,11,31,4.80
2013,10,01,11,32,9.60
2013,10,01,11,33,16.10
2013,10,01,11,34,6.40
2013,10,01,11,35,11.30
2013,10,01,11,36,19.30
2013,10,01,11,37,8.10
2013,10,01,11,38,9.60
2013,10,01,11,39,9.60
2013,10,01,11,40,9.60
2013,10,01,11,41,9.60
2013,10,01,11,42,19.30
2013,10,01,11,43,17.70
2013,10,01,11,44,16.10
2013,10,01,11,45,16.10
2013,10,01,11,46,9.60
2013,10,01,11,47,9.60
2013,10,01,11,48,14.50
2013,10,01,11,49,14.50
2013,10,01,11,50,16.10
2013,10,01,11,51,14.50
2013,10,01,11,52,9.60
2013,10,01,11,53,9.60
2013,10,01,11,54,14.50
2013,10,01,11,55,11.30
2013,10,01,11,56,9.60
2013,10,01,11,57,12.90
2013,10,01,11,58,9.60
2013,10,01,11,59,9.60
2013,10,01,12,00,14.50
2013,10,01,12,01,14.50
2013,10,01,12,02,12.90
2013,10,01,12,03,12.90
2013,10,01,12,04,14.50
2013,10,01,12,05,12.90
2013,10,01,12,06,19.30
2013,10,01,12,07,9.60
2013,10,01,12,08,22.50
2013,10,01,12,09,19.30
2013,10,01,12,10,16.10
2013,10,01,12,11,22.50
2013,10,01,12,12,12.90
2013,10,01,12,13,12.90
2013,10,01,12,14,9.60
2013,10,01,12,15,14.50
2013,10,01,12,16,16.10
2013,10,01,12,17,14.50
2013,10,01,12,18,14.50
2013,10,01,12,19,8.10
2013,10,01,12,20,17.70
2013,10,01,12,21,16.10
2013,10,01,12,22,9.60
2013,10,01,12,23,11.30
2013,10,01,12,24,14.50
2013,10,01,12,25,16.10
2013,10,01,12,26,17.70
2013,10,01,12,27,19.30
2013,10,01,12,28,16.10
2013,10,01,12,29,11.30
2013,10,01,12,30,11.30
2013,10,01,12,31,12.90
2013,10,01,12,32,14.50
2013,10,01,12,33,19.30
2013,10,01,12,34,19.30
2013,10,01,12,35,20.90
2013,10,01,12,36,22.50
2013,10,01,12,37,20.90
2013,10,01,12,38,24.20
2013,10,01,12,39,24.20
2013,10,01,12,40,19.30
2013,10,01,12,41,22.50
2013,10,01,12,42,20.90
2013,10,01,12,43,16.10
2013,10,01,12,44,14.50
2013,10,01,12,45,17.70
2013,10,01,12,46,19.30
2013,10,01,12,47,11.30
2013,10,01,12,48,11.30
2013,10,01,12,49,12.90
2013,10,01,12,50,11.30
2013,10,01,12,51,16.10
2013,10,01,12,52,12.90
2013,10,01,12,53,9.60
2013,10,01,12,54,11.30
2013,10,01,12,55,12.90
2013,10,01,12,56,11.30
2013,10,01,12,57,11.30
2013,10,01,12,58,17.70
2013,10,01,12,59,16.10
2013,10,01,13,00,14.50
2013,10,01,13,01,17.70
2013,10,01,13,02,20.90
2013,10,01,13,03,12.90
2013,10,01,13,04,9.60
2013,10,01,13,05,16.10
2013,10,01,13,06,11.30
2013,10,01,13,07,14.50
2013,10,01,13,08,16.10
2013,10,01,13,09,11.30
2013,10,01,13,10,8.10
2013,10,01,13,11,9.60
2013,10,01,13,12,12.90
2013,10,01,13,13,12.90
2013,10,01,13,14,14.50
2013,10,01,13,15,9.60
2013,10,01,13,16,22.50
2013,10,01,13,17,19.30
2013,10,01,13,18,17.70
2013,10,01,13,19,14.50
2013,10,01,13,20,14.50
2013,10,01,13,21,11.30
2013,10,01,13,22,9.60
2013,10,01,13,23,16.10
2013,10,01,13,24,17.70
2013,10,01,13,25,16.10
2013,10,01,13,26,17.70
2013,10,01,13,27,25.70
2013,10,01,13,28,17.70
2013,10,01,13,29,17.70
2013,10,01,13,30,19.30
2013,10,01,13,31,19.30
2013,10,01,13,32,19.30
2013,10,01,13,33,17.70
2013,10,01,13,34,17.70
2013,10,01,13,35,12.90
2013,10,01,13,36,9.60
2013,10,01,13,37,11.30
2013,10,01,13,38,17.70
2013,10,01,13,39,17.70
2013,10,01,13,40,16.10
2013,10,01,13,41,20.90
2013,10,01,13,42,19.30
2013,10,01,13,43,16.10
2013,10,01,13,44,19.30
2013,10,01,13,45,16.10
2013,10,01,13,46,11.30
2013,10,01,13,47,12.90
2013,10,01,13,48,14.50
2013,10,01,13,49,19.30
2013,10,01,13,50,17.70
2013,10,01,13,51,12.90
2013,10,01,13,52,16.10
2013,10,01,13,53,16.10
2013,10,01,13,54,20.90
2013,10,01,13,55,20.90
2013,10,01,13,56,20.90
2013,10,01,13,57,16.10
2013,10,01,13,58,24.20
2013,10,01,13,59,22.50
2013,10,01,14,00,17.70
2013,10,01,14,01,14.50
2013,10,01,14,02,8.10
2013,10,01,14,03,17.70
2013,10,01,14,04,17.70
2013,10,01,14,05,14.50
2013,10,01,14,06,12.90
2013,10,01,14,07,22.50
2013,10,01,14,08,9.60
2013,10,01,14,09,17.70
2013,10,01,14,10,17.70
2013,10,01,14,11,11.30
2013,10,01,14,12,11.30
2013,10,01,14,13,11.30
2013,10,01,14,14,11.30
2013,10,01,14,15,12.90
2013,10,01,14,16,17.70
2013,10,01,14,17,14.50
2013,10,01,14,18,9.60
2013,10,01,14,19,11.30
2013,10,01,14,20,16.10
2013,10,01,14,21,11.30
2013,10,01,14,22,17.70
2013,10,01,14,23,11.30
2013,10,01,14,24,16.10
2013,10,01,14,25,17.70
2013,10,01,14,26,20.90
2013,10,01,14,27,11.30
2013,10,01,14,28,16.10
2013,10,01,14,29,16.10
2013,10,01,14,30,14.50
2013,10,01,14,31,14.50
2013,10,01,14,32,11.30
2013,10,01,14,33,9.60
2013,10,01,14,34,14.50
2013,10,01,14,35,8.10
2013,10,01,14,36,11.30
2013,10,01,14,37,12.90
2013,10,01,14,38,16.10
2013,10,01,14,39,8.10
2013,10,01,14,40,16.10
2013,10,01,14,41,12.90
2013,10,01,14,42,11.30
2013,10,01,14,43,17.70
2013,10,01,14,44,17.70
2013,10,01,14,45,17.70
2013,10,01,14,46,11.30
2013,10,01,14,47,11.30
2013,10,01,14,48,9.60
2013,10,01,14,49,11.30
2013,10,01,14,50,11.30
2013,10,01,14,51,3.20
2013,10,01,14,52,6.40
2013,10,01,14,53,9.60
2013,10,01,14,54,8.10
2013,10,01,14,55,3.20
2013,10,01,14,56,1.60
2013,10,01,14,57,4.80
2013,10,01,14,58,6.40
2013,10,01,14,59,14.50
2013,10,01,15,00,11.30
2013,10,01,15,01,14.50
2013,10,01,15,02,16.10
2013,10,01,15,03,17.70
2013,10,01,15,04,16.10
2013,10,01,15,05,9.60
2013,10,01,15,06,11.30
2013,10,01,15,07,9.60
2013,10,01,15,08,9.60
2013,10,01,15,09,9.60
2013,10,01,15,10,11.30
2013,10,01,15,11,16.10
2013,10,01,15,12,17.70
2013,10,01,15,13,9.60
2013,10,01,15,14,11.30
2013,10,01,15,15,12.90
2013,10,01,15,16,9.60
2013,10,01,15,17,9.60
2013,10,01,15,18,11.30
2013,10,01,15,19,19.30
2013,10,01,15,20,14.50
2013,10,01,15,21,14.50
2013,10,01,15,22,19.30
2013,10,01,15,23,11.30
2013,10,01,15,24,9.60
2013,10,01,15,25,8.10
2013,10,01,15,26,12.90
2013,10,01,15,27,8.10
2013,10,01,15,28,9.60
2013,10,01,15,29,4.80
2013,10,01,15,30,11.30
2013,10,01,15,31,11.30
2013,10,01,15,32,14.50
2013,10,01,15,33,9.60
2013,10,01,15,34,6.40
2013,10,01,15,35,9.60
2013,10,01,15,36,8.10
2013,10,01,15,37,6.40
2013,10,01,15,38,9.60
2013,10,01,15,39,9.60
2013,10,01,15,40,9.60
2013,10,01,15,41,6.40
2013,10,01,15,42,4.80
2013,10,01,15,43,4.80
2013,10,01,15,44,6.40
2013,10,01,15,45,4.80
2013,10,01,15,47,3.20
2013,10,01,15,48,3.20
2013,10,01,15,49,4.80
2013,10,01,15,52,1.60
2013,10,01,15,53,1.60
2013,10,01,15,54,6.40
2013,10,01,15,55,3.20
2013,10,01,15,56,4.80
2013,10,01,15,57,1.60
2013,10,01,15,59,3.20
2013,10,01,16,00,3.20
2013,10,01,16,01,3.20
2013,10,01,16,02,3.20
2013,10,01,16,06,1.60
2013,10,01,16,07,6.40
2013,10,01,16,08,3.20
2013,10,01,16,09,4.80
2013,10,01,16,10,3.20
2013,10,01,16,11,3.20
2013,10,01,16,12,3.20
2013,10,01,16,13,3.20
2013,10,01,16,14,4.80
2013,10,01,16,23,1.60
2013,10,01,16,24,3.20
2013,10,01,16,25,4.80
2013,10,01,16,26,4.80
2013,10,01,16,27,4.80
2013,10,01,16,28,4.80
2013,10,01,16,29,4.80
2013,10,01,16,30,8.10
2013,10,01,16,31,8.10
2013,10,01,16,32,6.40
2013,10,01,16,33,6.40
2013,10,01,16,34,3.20
2013,10,01,16,36,1.60
2013,10,01,16,37,4.80
2013,10,01,16,38,3.20
2013,10,01,16,39,4.80
2013,10,01,16,40,4.80
2013,10,01,16,41,4.80
2013,10,01,16,42,4.80
2013,10,01,16,43,4.80
2013,10,01,16,45,3.20
2013,10,01,16,46,4.80
2013,10,01,16,47,4.80
2013,10,01,16,48,4.80
2013,10,01,16,49,3.20
2013,10,01,16,50,1.60
2013,10,01,16,51,4.80
2013,10,01,16,52,6.40
2013,10,01,16,53,6.40
2013,10,01,16,54,6.40
2013,10,01,16,55,8.10
2013,10,01,16,56,4.80
2013,10,01,16,57,4.80
2013,10,01,16,58,3.20
2013,10,01,17,02,3.20
2013,10,01,17,03,3.20
2013,10,01,17,04,3.20
2013,10,01,17,07,3.20
2013,10,01,17,20,4.80
2013,10,01,17,21,3.20
2013,10,01,17,25,4.80
2013,10,01,17,26,3.20
2013,10,01,17,27,3.20
2013,10,01,17,28,1.60
2013,10,01,17,34,1.60
2013,10,01,17,49,1.60
2013,10,01,17,50,3.20
2013,10,01,17,51,3.20
2013,10,01,17,52,3.20
2013,10,01,18,18,4.80
2013,10,01,18,19,4.80
2013,10,01,18,20,4.80
2013,10,01,18,21,3.20
2013,10,01,18,22,4.80
2013,10,01,18,23,4.80
2013,10,01,18,24,3.20
2013,10,01,18,25,4.80
2013,10,01,18,26,3.20
2013,10,01,18,27,4.80
2013,10,01,18,28,4.80
2013,10,01,18,29,3.20
2013,10,01,18,30,3.20
2013,10,01,18,31,3.20
2013,10,01,18,42,1.60
2013,10,01,18,43,3.20
2013,10,01,18,44,1.60
2013,10,01,18,57,1.60
2013,10,01,18,58,1.60
2013,10,01,19,04,4.80
2013,10,01,19,05,4.80
2013,10,01,19,06,4.80
2013,10,01,19,07,3.20
2013,10,01,19,08,3.20
2013,10,01,19,09,3.20
2013,10,01,19,10,4.80
2013,10,01,19,11,4.80
2013,10,01,19,12,4.80
2013,10,01,19,13,4.80
2013,10,01,19,14,3.20
2013,10,01,19,15,3.20
2013,10,01,19,16,1.60
2013,10,01,19,23,3.20
2013,10,01,19,24,4.80
2013,10,01,19,25,3.20
2013,10,01,19,26,3.20
2013,10,01,19,27,3.20
2013,10,01,19,29,1.60
2013,10,01,19,36,1.60
2013,10,01,19,37,4.80
2013,10,01,19,38,8.10
2013,10,01,19,39,6.40
2013,10,01,19,40,4.80
2013,10,01,19,41,6.40
2013,10,01,19,42,6.40
2013,10,01,19,43,1.60
2013,10,01,19,44,4.80
2013,10,01,19,45,3.20
2013,10,01,20,33,1.60
2013,10,01,20,43,1.60
2013,10,01,20,44,3.20
2013,10,01,20,45,1.60
2013,10,01,22,09,1.60
2013,10,01,22,12,4.80
2013,10,01,22,13,4.80
2013,10,01,22,14,4.80
2013,10,01,22,15,3.20
2013,10,01,22,27,1.60
2013,10,01,22,32,4.80
2013,10,01,22,33,3.20
2013,10,01,22,34,3.20
2013,10,01,22,35,1.60
2013,10,01,22,38,1.60
2013,10,01,22,39,1.60
2013,10,01,22,41,3.20
2013,10,01,22,42,3.20
2013,10,01,22,43,1.60
2013,10,01,22,44,3.20
2013,10,01,22,45,4.80
2013,10,01,22,46,3.20
2013,10,01,22,47,4.80
2013,10,01,22,48,3.20
2013,10,01,22,49,3.20
2013,10,01,22,55,1.60
